{"data":{"norad_id":61574,"intl_designator":"2024-187A","name":"STARLINK-11356 [DTC]","alt_names":[],"object_type":"PAYLOAD","status":"ACTIVE","operator":null,"country":"US","launch_date":"2024-10-18","launch_site_code":"AFETR","launch_vehicle":null,"mission":null,"orbit_class":"UNKNOWN","rcs_meters":null,"size_class":null,"mass_kg":null,"dimensions":null,"purposes":["comms"],"wikipedia_slug":null,"has_3d_model":false,"image_url":null,"decayed_at":null,"tle_current":{"epoch":"2026-09-21T21:04:27.396768Z","epoch_age_seconds":73060,"freshness":"FRESH","line1":"1 61574U 24187A   26264.87809487  .00003723  00000+0  35536-4 0  9996","line2":"2 61574  53.1589  49.1381 0000512  80.1326 279.9750 15.69729623111596","mean_motion":15.69729623,"eccentricity":5.12e-5,"inclination_deg":53.1589,"raan_deg":49.1381,"arg_perigee_deg":80.1326,"mean_anomaly_deg":279.975,"bstar":3.5536e-5,"rev_number":11159,"period_min":91.735543427405,"perigee_km":359.32562174105,"apogee_km":360.01557323903,"semimajor_km":6737.80759749,"source":"CELESTRAK","updated_at":"2026-09-22T09:00:49.389897Z"}}}